Flag for Italy Weather past 2 weeks in Bologna, Italy

Now
46 °F

Fog.


Feels Like: 46 °F
Forecast: 40 / 53 °F
Wind: 2 mph from North

Location: Bologna / Borgo Panigale

Current Time: Dec 20, 2014 at 2:04:09 PM

Latest Report: Dec 20, 2014 at 1:20 PM


Visibility: 3 mi

Pressure: 30.21 "Hg

Humidity: 93%

Dew point: 45 °F

Location of BolognaLocation

Historic Weather in Bologna — Graph

°F

Bologna temperature yesterday

Maximum temperature yesterday: 43 °F (at 12:20 PM)
Minimum temperature yesterday: 36 °F (at 7:20 AM)
Average temperature yesterday: 41 °F

Past Weeks' High & Low Weather Summary

 TemperatureHumidityPressure
High55 °F (Dec 8, 1:20 PM)100% (Dec 6, 3:50 AM)30.24 "Hg (Dec 6, 3:50 AM)
Low34 °F (Dec 11, 7:50 AM)62% (Dec 11, 12:50 PM)29.80 "Hg (Dec 16, 4:20 PM)
Average45 °F91%30.07 "Hg
* Reported Dec 5 12:20 PM — Dec 20 12:50 PM, Bologna, Weather by CustomWeather, © 2014

Note: Actual official high and low records may vary slightly from our data, if they occured in-between our weather recording intervals... More about our weather records

Advertising

Bologna weather history for previous 24 hours

 ConditionsComfort  
Time TempWeatherWind HumidityBarometerVisibility
12:50 PM
Dec 20
46 °FFog.5 mph93%30.21 "Hg3 mi
12:20 PM45 °FFog.5 mph100%30.24 "Hg3 mi
11:50 AM45 °FFog.3 mph100%30.24 "Hg3 mi
11:20 AM43 °FFog.3 mph100%30.24 "Hg3 mi
10:50 AM43 °FFog.2 mph100%30.24 "Hg3 mi
10:20 AM41 °FFog.6 mph100%30.24 "Hg2 mi
9:50 AM39 °FFog.3 mph100%30.24 "Hg2 mi
9:20 AM39 °FFog.5 mph100%30.24 "Hg1 mi
8:50 AM39 °FFog.3 mph100%30.24 "Hg0 mi
8:20 AM39 °FFog.3 mph100%30.21 "Hg0 mi
7:50 AM39 °FFog.2 mph100%30.21 "Hg0 mi
7:20 AM39 °FFog.1 mph100%30.21 "Hg0 mi
6:50 AM39 °FFog.2 mph100%30.18 "Hg0 mi
6:20 AM39 °FFog.No wind100%30.18 "Hg0 mi
5:50 AM39 °FFog.2 mph100%30.18 "Hg0 mi
5:20 AM39 °FFog.3 mph100%30.18 "Hg0 mi
4:50 AM39 °FFog.1 mph100%30.18 "Hg0 mi
4:20 AM39 °FFog.2 mph100%30.18 "Hg0 mi
3:50 AM39 °FFog.3 mph100%30.18 "Hg0 mi
3:20 AM39 °FFog.2 mph100%30.18 "Hg0 mi
2:50 AM41 °FFog.3 mph100%30.18 "Hg0 mi
2:20 AM41 °FFog.5 mph100%30.18 "Hg0 mi
1:50 AM41 °FFog.3 mph100%30.18 "Hg0 mi
1:20 AM41 °FFog.5 mph100%30.18 "Hg0 mi
12:50 AM41 °FFog.3 mph100%30.15 "Hg0 mi
12:20 AM41 °FFog.5 mph100%30.18 "Hg0 mi
11:50 PM
Dec 19
41 °FFog.3 mph100%30.18 "Hg0 mi
11:20 PM41 °FFog.1 mph100%30.18 "Hg0 mi
10:50 PM41 °FFog.1 mph100%30.18 "Hg0 mi
10:20 PM41 °FFog.2 mph100%30.18 "Hg0 mi
9:50 PM41 °FFog.3 mph100%30.18 "Hg0 mi
9:20 PM43 °FFog.6 mph100%30.18 "Hg0 mi
8:50 PM43 °FFog.3 mph100%30.18 "Hg0 mi
8:20 PM43 °FFog.6 mph100%30.18 "Hg0 mi
7:50 PM43 °FFog.2 mph100%30.18 "Hg0 mi
7:20 PM41 °FFog.5 mph100%30.18 "Hg0 mi
6:50 PM43 °FFog.5 mph100%30.18 "Hg0 mi
6:20 PM43 °FFog.6 mph100%30.18 "Hg0 mi
5:50 PM43 °FFog.3 mph100%30.18 "Hg0 mi
5:20 PM43 °FFog.2 mph100%30.18 "Hg0 mi
4:50 PM43 °FFog.3 mph100%30.18 "Hg0 mi
4:20 PM43 °FFog.3 mph100%30.18 "Hg0 mi
3:50 PM43 °FFog.3 mph100%30.18 "Hg0 mi
3:20 PM43 °FFog.5 mph100%30.18 "Hg0 mi
2:50 PM43 °FFog.5 mph100%30.18 "Hg0 mi
2:20 PM43 °FFog.3 mph100%30.18 "Hg0 mi
Weather by CustomWeather, © 2014

See weather overviewHow to use our weather pages